FW3572 Weather Reports


time (UTC)temp
F
wind
direction
speed
knots
gust
knots
rain 1hr
in
rain 24hr
in
rain mn
in
humidity
%
barometer
mb
20260903010016 82 127 0.9 7.0 0.00 0.00 0.00 100 1016.1
20260903005516 82 110 1.7 6.1 0.00 0.00 0.00 100 1016.1
20260903005015 82 119 1.7 5.2 0.00 0.00 0.00 100 1016.0
20260903004530 82 118 0.9 4.3 0.00 0.00 0.00 100 1016.0
20260903004018 82 104 0.9 5.2 0.00 0.00 0.00 100 1016.0
20260903003516 82 97 0.9 2.6 0.00 0.00 0.00 100 1016.0
20260903003016 82 110 0.0 6.1 0.00 0.00 0.00 100 1016.0
20260903002515 82 86 0.9 6.1 0.00 0.00 0.00 100 1015.8
20260903002015 82 83 0.9 3.5 0.00 0.00 0.00 100 1015.7
20260903001514 82 115 0.9 6.1 0.00 0.00 0.00 100 1015.6
20260903001014 82 103 0.9 6.1 0.00 0.00 0.00 100 1015.7
20260903000514 82 113 0.9 5.2 0.00 0.00 0.00 100 1015.6
20260903000016 82 101 0.0 5.2 0.00 0.00 0.00 100 1015.6
20260902235514 82 132 0.9 6.1 0.00 0.00 0.00 100 1015.6
20260902235013 82 98 1.7 7.8 0.00 0.00 0.00 100 1015.6
20260902234513 82 124 2.6 7.8 0.00 0.00 0.00 100 1015.5
20260902234013 82 107 1.7 6.1 0.00 0.00 0.00 100 1015.4
20260902233513 82 119 0.0 7.0 0.00 0.00 0.00 100 1015.4
20260902233013 82 136 3.5 7.0 0.00 0.00 0.00 100 1015.5
20260902232514 82 161 2.6 7.0 0.00 0.00 0.00 100 1015.5
20260902232012 82 93 1.7 7.0 0.00 0.00 0.00 100 1015.4
20260902231514 82 106 0.9 5.2 0.00 0.00 0.00 100 1015.4
20260902231018 82 111 1.7 5.2 0.00 0.00 0.00 100 1015.4
20260902230517 82 131 1.7 7.8 0.00 0.00 0.00 100 1015.3
20260902230011 83 149 2.6 7.8 0.00 0.00 0.00 100 1015.3
20260902225512 82 129 1.7 8.7 0.00 0.00 0.00 100 1015.4
20260902225012 82 96 3.5 8.7 0.00 0.00 0.00 100 1015.3
20260902224511 82 139 3.5 6.1 0.00 0.00 0.00 100 1015.3
20260902224010 83 135 1.7 4.3 0.00 0.00 0.00 100 1015.3
20260902223518 83 128 1.7 5.2 0.00 0.00 0.00 100 1015.3
20260902223010 83 101 0.9 7.0 0.00 0.00 0.00 100 1015.3
20260902222511 83 67 2.6 7.0 0.00 0.00 0.00 100 1015.4
20260902222010 83 111 1.7 5.2 0.00 0.00 0.00 100 1015.3
20260902221509 83 111 1.7 3.5 0.00 0.00 0.00 100 1015.3
20260902221010 83 116 0.0 2.6 0.00 0.00 0.00 100 1015.3
20260902220509 83 113 0.0 5.2 0.00 0.00 0.00 100 1015.4
20260902220009 83 111 0.0 5.2 0.00 0.00 0.00 100 1015.4
20260902215508 83 117 0.9 3.5 0.00 0.00 0.00 100 1015.5
20260902215008 83 107 0.9 4.3 0.00 0.00 0.00 100 1015.5
20260902214509 83 109 0.9 5.2 0.00 0.00 0.00 100 1015.5
20260902214008 83 118 1.7 5.2 0.00 0.00 0.00 100 1015.5
20260902213508 83 130 0.9 6.1 0.00 0.00 0.00 100 1015.5
20260902213022 83 119 1.7 6.1 0.00 0.00 0.00 100 1015.5
20260902212508 83 110 1.7 6.1 0.00 0.00 0.00 100 1015.5
20260902212007 83 152 2.6 6.1 0.00 0.00 0.00 100 1015.4
20260902211507 83 146 1.7 6.1 0.00 0.00 0.00 100 1015.4
20260902211006 84 124 1.7 7.0 0.00 0.00 0.00 100 1015.3
20260902210506 84 117 3.5 7.0 0.00 0.00 0.00 100 1015.4
20260902210014 84 109 1.7 6.1 0.00 0.00 0.00 100 1015.4
20260902205505 84 148 0.9 7.0 0.00 0.00 0.00 100 1015.5
20260902205007 84 153 2.6 6.1 0.00 0.00 0.00 100 1015.5
20260902204505 84 122 1.7 7.0 0.00 0.00 0.00 100 1015.7
20260902204005 85 106 1.7 7.0 0.00 0.00 0.00 100 1015.7
20260902203505 85 121 3.5 7.0 0.00 0.00 0.00 100 1015.7
20260902203005 85 153 3.5 7.0 0.00 0.00 0.00 100 1015.7
20260902202504 85 116 2.6 7.8 0.00 0.00 0.00 100 1015.6
20260902202003 85 136 1.7 7.8 0.00 0.00 0.00 100 1015.6
20260902201504 85 89 1.7 7.0 0.00 0.00 0.00 100 1015.6
20260902201003 85 113 1.7 7.0 0.00 0.00 0.00 100 1015.5
20260902200503 85 90 2.6 7.8 0.00 0.00 0.00 100 1015.6
20260902200006 85 76 1.7 9.6 0.00 0.00 0.00 100 1015.7
20260902195502 85 111 2.6 9.6 0.00 0.00 0.00 100 1015.7
20260902195001 84 82 2.6 7.0 0.00 0.00 0.00 100 1015.8
20260902194502 84 131 0.9 7.8 0.00 0.00 0.00 100 1015.9
20260902194007 84 128 1.7 8.7 0.00 0.00 0.00 100 1015.9
20260902193502 84 138 2.6 8.7 0.00 0.00 0.00 100 1016.0
20260902193101 85 107 2.6 6.1 0.00 0.00 0.00 100 1016.0
20260902192500 85 135 1.7 7.0 0.00 0.00 0.00 100 1016.1
20260902192059 85 151 3.5 7.0 0.00 0.00 0.00 100 1016.2
20260902191600 85 126 1.7 7.8 0.00 0.00 0.00 100 1016.3
20260902191059 85 132 3.5 7.8 0.00 0.00 0.00 100 1016.3
20260902190559 86 113 1.7 7.0 0.00 0.00 0.00 100 1016.3
20260902190058 85 125 2.6 7.8 0.00 0.00 0.00 100 1016.3
20260902185557 85 128 2.6 8.7 0.00 0.00 0.00 100 1016.4
20260902185057 85 169 3.5 8.7 0.00 0.00 0.00 100 1016.4
20260902184601 85 131 0.9 6.1 0.00 0.00 0.00 100 1016.4
20260902184057 85 153 1.7 6.1 0.00 0.00 0.00 100 1016.4
20260902183557 84 132 1.7 5.2 0.00 0.00 0.00 100 1016.5
20260902183110 84 119 0.9 7.0 0.00 0.00 0.00 100 1016.5
20260902182556 83 113 0.9 7.0 0.00 0.00 0.00 100 1016.5
20260902182055 83 116 1.7 7.8 0.00 0.00 0.00 100 1016.6
20260902181555 83 112 2.6 7.8 0.00 0.00 0.00 100 1016.7
20260902181055 83 108 0.9 7.0 0.00 0.00 0.00 100 1016.7
20260902180554 83 130 2.6 7.8 0.00 0.00 0.00 100 1016.7
20260902180055 82 53 2.6 7.8 0.00 0.00 0.00 100 1016.8
20260902175557 83 90 1.7 7.0 0.00 0.00 0.00 100 1016.8
20260902175054 83 130 1.7 6.1 0.00 0.00 0.00 100 1016.8
20260902174604 83 107 0.0 4.3 0.00 0.00 0.00 100 1016.8
20260902174058 83 112 0.9 3.5 0.00 0.00 0.00 100 1016.8
20260902173554 83 113 0.9 5.2 0.00 0.00 0.00 100 1016.9
20260902173053 83 119 0.9 5.2 0.00 0.00 0.00 100 1016.9
20260902172554 83 124 0.9 5.2 0.00 0.00 0.00 100 1017.0
20260902172053 83 123 0.0 3.5 0.00 0.00 0.00 100 1017.0
20260902171601 83 79 0.0 3.5 0.00 0.00 0.00 100 1017.1
20260902171054 83 118 0.9 3.5 0.00 0.00 0.00 100 1017.1
20260902170552 83 109 0.0 3.5 0.00 0.00 0.00 100 1017.2
20260902170052 83 117 0.9 3.5 0.00 0.00 0.00 100 1017.2
20260902165552 84 115 0.9 3.5 0.00 0.00 0.00 100 1017.3
20260902165052 84 88 0.0 2.6 0.00 0.00 0.00 100 1017.3
20260902164552 84 74 0.0 3.5 0.00 0.00 0.00 100 1017.3
20260902164051 84 42 0.0 3.5 0.00 0.00 0.00 100 1017.3
20260902163551 84 59 0.0 2.6 0.00 0.00 0.00 100 1017.5
20260902163105 84 80 0.0 4.3 0.00 0.00 0.00 100 1017.5
20260902162553 85 63 0.9 5.2 0.00 0.00 0.00 100 1017.7
20260902162050 85 355 1.7 5.2 0.00 0.00 0.00 100 1017.8
20260902161550 85 15 0.9 4.3 0.00 0.00 0.00 100 1017.9
20260902161052 85 40 0.9 4.3 0.00 0.00 0.00 100 1017.7
20260902160549 85 152 0.9 4.3 0.00 0.00 0.00 100 1017.8
20260902160049 85 97 0.9 4.3 0.00 0.00 0.00 100 1017.7
20260902155549 85 5 0.9 4.3 0.00 0.00 0.00 100 1017.7
20260902155049 85 117 0.0 3.5 0.00 0.00 0.00 100 1017.9
20260902154549 85 94 0.0 3.5 0.00 0.00 0.00 100 1018.0
20260902154048 85 18 0.0 2.6 0.00 0.00 0.00 100 1018.0
20260902153547 85 25 0.9 3.5 0.00 0.00 0.00 100 1018.1
20260902153045 85 26 0.9 2.6 0.00 0.00 0.00 100 1018.1
20260902152543 85 113 0.0 1.7 0.00 0.00 0.00 100 1018.1
20260902152041 84 114 0.0 1.7 0.00 0.00 0.00 100 1018.1
20260902151551 84 71 0.0 1.7 0.00 0.00 0.00 100 1017.9
20260902151044 84 346 0.0 1.7 0.00 0.00 0.00 100 1017.7
20260902150541 84 346 0.0 1.7 0.00 0.00 0.00 100 1017.6
20260902150043 84 340 0.0 3.5 0.00 0.00 0.00 100 1017.6
20260902145540 83 355 0.0 3.5 0.00 0.00 0.00 100 1017.7
20260902145038 83 360 0.9 3.5 0.00 0.00 0.00 100 1017.8
20260902144543 83 5 0.9 3.5 0.00 0.00 0.00 100 1017.9
20260902144037 83 341 0.9 3.5 0.00 0.00 0.00 100 1017.8
20260902143540 83 5 0.0 2.6 0.00 0.00 0.00 100 1017.8
20260902143037 83 9 0.0 2.6 0.00 0.00 0.00 100 1017.6
20260902142537 83 355 0.0 2.6 0.00 0.00 0.00 100 1017.7
20260902142035 83 360 0.0 2.6 0.00 0.00 0.00 100 1017.6
20260902141538 82 355 0.0 3.5 0.00 0.00 0.00 100 1017.7
20260902141036 82 347 0.9 3.5 0.00 0.00 0.00 100 1017.7
20260902140536 82 5 1.7 3.5 0.00 0.00 0.00 100 1017.6
20260902140038 82 9 1.7 3.5 0.00 0.00 0.00 100 1017.8
20260902135535 83 328 0.0 1.7 0.00 0.00 0.00 100 1017.7
20260902135035 83 327 0.0 1.7 0.00 0.00 0.00 100 1017.6
20260902134534 83 313 0.0 1.7 0.00 0.00 0.00 100 1017.6
20260902134035 83 314 0.0 1.7 0.00 0.00 0.00 100 1017.5
20260902133536 83 336 0.0 2.6 0.00 0.00 0.00 100 1017.5
20260902133034 83 336 0.0 2.6 0.00 0.00 0.00 100 1017.4
20260902132533 83 344 0.0 2.6 0.00 0.00 0.00 100 1017.6
20260902132033 83 346 0.9 3.5 0.00 0.00 0.00 100 1017.5
20260902131533 83 348 0.0 3.5 0.00 0.00 0.00 100 1017.6
20260902131032 83 317 0.0 3.5 0.00 0.00 0.00 100 1017.5
20260902130532 83 345 0.9 3.5 0.00 0.00 0.00 100 1017.5
20260902130032 82 277 0.0 0.0 0.00 0.00 0.00 100 1017.5
20260902125529 82 290 0.0 0.0 0.00 0.00 0.00 100 1017.4
20260902125033 82 302 0.0 0.0 0.00 0.00 0.00 100 1017.4
20260902124527 81 299 0.0 0.0 0.00 0.00 0.00 100 1017.4
20260902124027 81 313 0.0 0.0 0.00 0.00 0.00 100 1017.3
20260902123526 81 313 0.0 0.0 0.00 0.00 0.00 100 1017.4
20260902123029 81 313 0.0 0.0 0.00 0.00 0.00 100 1017.3
20260902122525 80 313 0.0 0.0 0.00 0.00 0.00 100 1017.3
20260902122023 80 313 0.0 1.7 0.00 0.00 0.00 100 1017.2
20260902121522 80 313 0.0 1.7 0.00 0.00 0.00 100 1017.1
20260902121023 79 315 0.0 0.9 0.00 0.00 0.00 100 1017.0
20260902120523 79 315 0.0 0.0 0.00 0.00 0.00 100 1017.0
20260902120022 79 315 0.0 0.0 0.00 0.00 0.00 100 1017.0
20260902115522 79 315 0.0 0.0 0.00 0.00 0.00 100 1017.0
20260902115022 79 315 0.0 0.0 0.00 0.00 0.00 100 1016.9
20260902114522 78 315 0.0 0.0 0.00 0.00 0.00 100 1016.9
20260902114021 78 315 0.0 0.0 0.00 0.00 0.00 100 1016.9
20260902113521 78 315 0.0 0.0 0.00 0.00 0.00 100 1016.9
20260902113022 78 315 0.0 0.0 0.00 0.00 0.00 100 1016.9
20260902112522 78 315 0.0 0.0 0.00 0.00 0.00 100 1016.9
20260902112026 78 315 0.0 0.0 0.00 0.00 0.00 100 1016.9
20260902111533 78 315 0.0 0.0 0.00 0.00 0.00 100 1016.9
20260902111023 78 315 0.0 0.0 0.00 0.00 0.00 100 1017.0
20260902110520 78 315 0.0 0.0 0.00 0.00 0.00 100 1016.9
20260902110021 78 315 0.0 0.0 0.00 0.00 0.00 100 1016.9
20260902105520 78 315 0.0 1.7 0.00 0.00 0.00 100 1016.8
20260902105020 78 315 0.0 1.7 0.00 0.00 0.00 100 1016.9
20260902104520 78 315 0.9 1.7 0.00 0.00 0.00 100 1016.7
20260902104020 78 308 0.0 1.7 0.00 0.00 0.00 100 1016.7
20260902103520 78 306 0.0 1.7 0.00 0.00 0.00 100 1016.6
20260902103020 78 306 0.0 3.5 0.00 0.00 0.00 100 1016.5
20260902102520 78 307 0.0 3.5 0.00 0.00 0.00 100 1016.4
20260902102019 78 326 0.0 3.5 0.00 0.00 0.00 100 1016.3
20260902101521 78 307 0.9 2.6 0.00 0.00 0.00 100 1016.3
20260902101025 78 316 0.0 2.6 0.00 0.00 0.00 100 1016.3
20260902100518 78 302 0.0 1.7 0.00 0.00 0.00 100 1016.3
20260902100020 78 302 0.0 0.0 0.00 0.00 0.00 100 1016.5
20260902095519 78 302 0.0 0.0 0.00 0.00 0.00 100 1016.5
20260902095018 78 302 0.0 0.0 0.00 0.00 0.00 100 1016.5
20260902094518 78 302 0.0 0.0 0.00 0.00 0.00 100 1016.3
20260902094018 78 302 0.0 0.0 0.00 0.00 0.00 100 1016.3
20260902093519 78 302 0.0 0.0 0.00 0.00 0.00 100 1016.3
20260902093017 78 302 0.0 0.0 0.00 0.00 0.00 100 1016.3
20260902092517 78 302 0.0 0.0 0.00 0.00 0.00 100 1016.3
20260902092021 78 302 0.0 0.0 0.00 0.00 0.00 100 1016.2
20260902091517 78 302 0.0 0.0 0.00 0.00 0.00 100 1016.2
20260902091018 78 302 0.0 0.0 0.00 0.00 0.00 100 1016.3
20260902090516 78 302 0.0 0.0 0.00 0.00 0.00 100 1016.4
20260902090016 78 302 0.0 0.0 0.00 0.00 0.00 100 1016.4
20260902085516 78 302 0.0 0.0 0.00 0.00 0.00 100 1016.3
20260902085018 78 302 0.0 0.0 0.00 0.00 0.00 100 1016.3
20260902084515 78 302 0.0 0.0 0.00 0.00 0.00 100 1016.2
20260902084016 78 300 0.0 1.7 0.00 0.00 0.00 100 1016.2
20260902083515 78 301 0.0 2.6 0.00 0.00 0.00 100 1016.1
20260902083015 78 292 0.9 2.6 0.00 0.00 0.00 100 1016.0
20260902082515 78 308 0.0 1.7 0.00 0.00 0.00 100 1016.0
20260902082014 78 309 0.0 2.6 0.00 0.00 0.00 100 1016.1
20260902081513 78 309 0.0 2.6 0.00 0.00 0.00 100 1016.1
20260902081013 78 317 0.0 0.0 0.00 0.00 0.00 100 1016.0
20260902080513 78 317 0.0 0.0 0.00 0.00 0.00 100 1016.2
20260902080013 78 317 0.0 0.0 0.00 0.00 0.00 100 1016.2
20260902075514 78 317 0.0 0.0 0.00 0.00 0.00 100 1016.2
20260902075013 78 323 0.0 0.0 0.00 0.00 0.00 100 1016.0
20260902074512 78 313 0.0 0.0 0.00 0.00 0.00 100 1016.0
20260902074012 78 313 0.0 0.0 0.00 0.00 0.00 100 1016.1
20260902073511 78 312 0.0 0.0 0.00 0.00 0.00 100 1016.2
20260902073011 78 309 0.0 0.0 0.00 0.00 0.00 100 1016.1
20260902072511 78 308 0.0 0.0 0.00 0.00 0.00 100 1016.2
20260902072010 78 306 0.0 0.0 0.00 0.00 0.00 100 1016.1
20260902071516 78 306 0.0 0.0 0.00 0.00 0.00 100 1016.2
20260902071009 78 306 0.0 0.0 0.00 0.00 0.00 100 1016.3
20260902070510 78 307 0.0 0.0 0.00 0.00 0.00 100 1016.3
20260902070010 79 307 0.0 0.0 0.00 0.00 0.00 100 1016.3
20260902065510 78 308 0.0 0.0 0.00 0.00 0.00 100 1016.3
20260902065009 78 290 0.0 0.0 0.00 0.00 0.00 100 1016.3
20260902064510 78 289 0.0 0.0 0.00 0.00 0.00 100 1016.3
20260902064007 78 288 0.0 0.0 0.00 0.00 0.00 100 1016.3
20260902063507 79 289 0.0 0.0 0.00 0.00 0.00 100 1016.4
20260902063007 78 289 0.0 0.0 0.00 0.00 0.00 100 1016.5
20260902062507 79 325 0.0 0.0 0.00 0.00 0.00 100 1016.5
20260902062005 79 325 0.0 0.0 0.00 0.00 0.00 100 1016.4
20260902061505 79 325 0.0 0.0 0.00 0.00 0.00 100 1016.5
20260902061008 79 325 0.0 0.0 0.00 0.00 0.00 100 1016.6
20260902060505 79 325 0.0 0.0 0.00 0.00 0.00 100 1016.6
20260902060005 79 327 0.0 0.0 0.00 0.00 0.00 100 1016.7
20260902055504 79 327 0.0 0.0 0.00 0.00 0.00 100 1016.6
20260902055004 79 327 0.0 0.0 0.00 0.00 0.00 100 1016.5
20260902054504 79 327 0.0 0.0 0.00 0.01 0.00 100 1016.5
20260902054003 79 328 0.0 0.0 0.00 0.01 0.00 100 1016.5
20260902053503 79 328 0.0 0.0 0.00 0.01 0.00 100 1016.7
20260902053004 79 328 0.0 0.0 0.00 0.01 0.00 100 1016.6
20260902052504 79 329 0.0 0.0 0.00 0.01 0.00 100 1016.6
20260902052003 79 329 0.0 0.0 0.00 0.01 0.00 100 1016.5
20260902051502 79 329 0.0 0.0 0.00 0.01 0.00 100 1016.6
20260902051004 79 329 0.0 0.0 0.00 0.01 0.00 100 1016.6
20260902050503 79 329 0.0 0.0 0.00 0.01 0.00 100 1016.7
20260902050107 79 329 0.0 0.0 0.00 0.01 0.00 100 1016.8
20260902050001 79 329 0.0 0.0 0.00 0.01 0.00 100 1016.8
20260902045559 79 329 0.0 0.0 0.00 0.01 0.00 100 1016.7
20260902045101 79 329 0.0 0.0 0.00 0.01 0.00 100 1016.9
20260902044602 79 329 0.0 0.0 0.00 0.01 0.00 100 1016.9
20260902044100 80 329 0.0 0.0 0.00 0.01 0.00 100 1016.8
20260902043559 79 329 0.0 0.0 0.00 0.01 0.00 100 1016.9
20260902043059 80 329 0.0 0.0 0.00 0.01 0.00 100 1016.8
20260902042601 80 329 0.0 0.0 0.00 0.01 0.00 100 1016.9
20260902042058 80 329 0.0 0.0 0.00 0.01 0.00 100 1016.9
20260902041559 80 328 0.0 0.0 0.00 0.01 0.00 100 1016.8
20260902041057 80 329 0.0 1.7 0.00 0.01 0.00 100 1016.9
20260902040601 80 329 0.0 2.6 0.00 0.01 0.00 100 1016.8
20260902040057 80 329 0.0 2.6 0.00 0.01 0.00 100 1016.9
20260902035556 80 355 0.0 0.0 0.00 0.01 0.00 100 1017.0
20260902035055 80 355 0.0 0.0 0.00 0.01 0.00 100 1017.1
20260902034557 80 355 0.0 0.0 0.00 0.01 0.01 100 1017.2
20260902034055 80 355 0.0 0.0 0.00 0.01 0.01 100 1017.2
20260902033556 80 355 0.0 0.0 0.00 0.01 0.01 100 1017.3
20260902033056 80 355 0.0 0.0 0.00 0.01 0.01 100 1017.4
20260902032555 80 355 0.0 0.0 0.00 0.01 0.01 100 1017.2
20260902032054 80 355 0.0 0.0 0.00 0.01 0.01 100 1017.2
20260902031605 80 355 0.0 0.0 0.00 0.01 0.01 100 1017.3
20260902031054 80 355 0.0 0.0 0.00 0.01 0.01 100 1017.4
20260902030554 80 355 0.0 0.0 0.00 0.01 0.01 100 1017.5
20260902030053 80 355 0.0 1.7 0.00 0.01 0.01 100 1017.5
20260902025553 80 355 0.0 1.7 0.00 0.01 0.01 100 1017.6
20260902025054 80 355 0.0 0.0 0.00 0.01 0.01 100 1017.5
20260902024558 80 355 0.0 1.7 0.00 0.01 0.01 100 1017.5
20260902024053 80 355 0.0 1.7 0.00 0.01 0.01 100 1017.6
20260902023552 80 355 0.0 0.0 0.00 0.01 0.01 100 1017.6
20260902023055 80 355 0.0 0.9 0.00 0.01 0.01 100 1017.6
20260902022552 80 355 0.0 0.9 0.00 0.01 0.01 100 1017.6
20260902022051 80 355 0.0 0.0 0.00 0.01 0.01 100 1017.6
20260902021606 80 355 0.0 0.9 0.00 0.01 0.01 100 1017.7
20260902021055 80 355 0.0 0.9 0.00 0.01 0.01 100 1017.5
20260902020552 80 355 0.0 0.0 0.00 0.01 0.01 100 1017.4
20260902015554 80 355 0.0 0.9 0.00 0.01 0.01 100 1017.4
20260902015053 80 355 0.0 0.0 0.00 0.01 0.01 100 1017.4
20260902014551 80 355 0.0 0.9 0.00 0.01 0.01 100 1017.3
20260902014051 80 355 0.0 0.9 0.00 0.01 0.01 100 1017.4
20260902013551 80 355 0.0 1.7 0.00 0.01 0.01 100 1017.4
20260902013051 80 355 0.0 2.6 0.00 0.01 0.01 100 1017.4
20260902012550 80 355 0.0 2.6 0.00 0.01 0.01 100 1017.3
20260902012050 80 355 0.9 2.6 0.00 0.01 0.01 100 1017.3
20260902011550 80 355 0.0 2.6 0.00 0.01 0.01 100 1017.1
20260902011050 80 355 0.9 2.6 0.00 0.01 0.01 100 1017.0
20260902010549 80 347 0.0 2.6 0.00 0.01 0.01 100 1017.0
20260902010049 80 345 0.0 1.7 0.00 0.01 0.01 100 1016.9